Location: McDonald Observatory
(30.6717°N, 104.0221°W)
Time: 04:24:12
(UTC-05:00)

Daily predictions for brighter satellites

Satellite Brightness Start Highest point End
(mag) Time Altitude Azimuth Time Altitude Azimuth Time Altitude Azimuth
Cosmos 2219 Rocket 4.4 04:48:29 18° ESE 04:48:52 18° E 04:52:31 10° ENE
COSMOS 2428 4.3 04:51:56 31° ENE 04:51:56 31° ENE 04:55:29 10° NE
Okean O Rocket 4.3 04:52:30 10° NE 04:54:01 17° ENE 04:54:01 17° ENE
Lacrosse 4 Rocket 4.3 05:03:25 14° E 05:03:25 14° E 05:04:37 10° E
Cosmos 2360 Rocket 3.9 05:09:38 25° N 05:09:38 25° N 05:12:00 10° NNE
Cosmos 2184 Rocket 4.3 05:07:00 10° N 05:12:43 62° ENE 05:12:43 62° ENE
ADEOS II 3.2 05:13:21 10° NNE 05:18:13 38° E 05:18:42 37° ESE
GOES 2 Rocket 4.4 05:30:18 40° ESE 05:30:18 40° ESE 05:33:56 10° E
Cosmos 2333 Rocket 3.2 05:35:41 29° SSE 05:37:58 42° ESE 05:43:19 10° NE
USA 229 DEB 3.8 05:38:14 51° S 05:39:56 71° ESE 05:46:48 10° NE
USA 229 3.8 05:38:18 51° S 05:40:03 70° ESE 05:46:54 10° NE
PAYLOAD B 4.3 05:35:59 10° NNE 05:41:36 74° ESE 05:42:35 59° SSE
PSLV R/B 4.0 05:41:58 10° NNE 05:45:55 60° ENE 05:45:55 60° ENE
Cosmos 2154 Rocket 4.4 05:41:02 10° N 05:47:09 62° E 05:53:16 10° SSE
EO 1 Del DPAF 4.3 05:48:44 36° ESE 05:49:41 44° ENE 05:53:22 10° N
OTV 4 3.4 05:56:10 14° E 05:56:10 14° E 05:56:46 10° E
Hubble Space Telescope 2.3 05:59:49 28° SSE 05:59:49 28° SSE 06:02:56 10° E
Nadezhda 1 Rocket 4.2 06:01:18 46° WNW 06:01:18 46° WNW 06:06:43 10° N
Cosmos 2181 Rocket 4.2 05:56:14 10° S 06:02:20 68° E 06:08:34 10° NNE
Cosmos 2333 4.3 06:03:49 51° WNW 06:03:56 51° WNW 06:09:27 10° N
Cosmos 468 Rocket 4.1 06:02:25 32° S 06:04:50 71° ESE 06:10:02 10° NNE
Meteor 1-12 Rocket 4.3 05:59:24 10° NNW 06:04:55 54° W 06:05:05 54° W
Cosmos 1610 Rocket 4.4 05:59:30 10° NNW 06:05:43 66° W 06:12:00 10° S
Tiangong 2 3.4 06:06:42 18° N 06:07:05 18° NNE 06:09:22 10° ENE
Meteor 1-13 Rocket 4.0 06:06:07 45° SSW 06:07:47 71° W 06:13:21 10° N
Meteor 2-13 Rocket 4.5 06:02:53 10° NNW 06:08:50 53° W 06:11:32 31° SSW
GPS 2-04 Rocket1 2.6 06:10:39 76° SSE 06:10:39 76° SSE 06:14:29 10° ENE
SL-16 R/B 4.4 06:08:50 10° SSE 06:13:12 23° E 06:17:35 10° NE
CZ-4B DEB 4.3 06:12:20 10° N 06:17:44 55° WNW 06:19:44 36° SW
CZ-4B R/B 3.3 06:12:43 10° N 06:18:11 54° WNW 06:20:11 36° SW
ERS-2 2.2 06:17:59 10° NNE 06:21:41 75° ESE 06:23:41 26° S
VEP-3 4.0 06:12:51 26° WSW 06:21:53 53° S 06:27:53 10° ESE
Cosmos 1980 3.6 06:19:16 19° SSW 06:23:26 89° ESE 06:29:07 10° NNE
CZ-2C R/B 3.6 06:22:36 10° S 06:27:12 70° WSW 06:31:44 10° NNW
Cosmos 2341 Rocket 3.9 06:21:46 10° N 06:28:00 81° W 06:34:11 10° S
Cosmos 1763 Rocket 3.8 06:27:16 10° S 06:32:16 65° ESE 06:37:18 10° NNE
Okean O Rocket 3.0 06:28:45 10° NNW 06:31:30 22° NW 06:31:30 22° NW
Cosmos 1025 Rocket 2.9 06:28:13 11° S 06:32:20 79° W 06:36:44 10° N
Cosmos 2219 Rocket 2.5 06:30:16 31° WSW 06:32:22 45° WNW 06:37:43 10° N
Cosmos 1437 3.1 06:30:31 12° S 06:33:26 67° E 06:36:41 10° NNE
GENESIS II 4.3 06:32:28 40° WSW 06:33:38 57° WNW 06:37:39 10° NNE
COSMOS 2428 3.8 06:33:59 23° WNW 06:34:36 24° WNW 06:39:06 10° N
Lacrosse 4 Rocket 2.1 06:40:03 30° W 06:40:26 31° WSW 06:44:15 10° S
Meteor 1-23 Rocket 4.2 06:35:00 10° SSW 06:40:46 74° W 06:46:34 10° N
NOSS 0 Rocket 4.0 06:37:08 17° SW 06:41:55 58° WNW 06:48:01 10° NNE
Cosmos 1892 Rocket 4.0 06:39:04 10° S 06:43:19 64° E 06:47:38 10° NNE
Meteor 2-9 Rocket 4.2 06:37:44 10° N 06:43:23 88° E 06:48:50 10° S
Cosmos 1844 Rocket 2.6 06:39:52 10° NNW 06:45:22 63° WSW 06:50:50 10° S
SJ-6F 4.4 06:42:03 10° NNE 06:46:08 86° ESE 06:50:12 10° S
Cosmos 841 Rocket 3.7 06:41:05 10° S 06:46:13 72° ESE 06:51:20 10° NNE
Okean-O 2.5 06:41:56 10° N 06:46:20 67° WNW 06:50:43 10° SSW
USA 116 3.9 06:42:20 10° SSE 06:46:21 87° WSW 06:50:57 10° NNW
ISS -1.6 06:52:03 13° SSW 06:52:03 13° SSW 06:52:44 10° SSW
Cosmos 1441 Rocket 3.8 06:50:50 10° S 06:54:42 63° E 06:58:39 10° NNE
Cosmos 2285 Rocket 4.4 06:48:58 11° SW 06:54:50 44° WNW 07:00:57 10° N
NOAA 6 4.0 06:49:47 10° NNE 06:54:56 87° ESE 07:00:02 10° SSW
Aureole 2 Rocket 3.1 06:53:44 19° SW 06:55:48 35° WNW 06:59:02 10° N
Cosmos 1814 Rocket 4.3 06:52:08 10° SW 06:57:08 46° WNW 07:02:05 10° N
ADEOS II 3.4 06:53:51 10° NNW 06:57:37 20° WNW 06:59:40 16° W
Cosmos 1515 3.9 06:55:36 10° S 06:59:25 76° E 07:03:16 10° N
Cosmos 2237 Rocket 2.5 06:54:58 10° SW 07:00:23 46° WNW 07:05:51 10° N
Cosmos 2298 Rocket 4.0 06:55:14 10° NNW 07:00:35 84° WSW 07:05:54 10° SSE
Cosmos 405 Rocket 3.2 06:57:09 10° SSW 07:01:00 41° W 07:04:50 10° N
Cosmos 2278 Rocket 2.6 06:55:34 10° NNW 07:01:13 68° ENE 07:06:49 10° SSE
Cosmos 371 Rocket 3.2 06:59:48 10° SSW 07:04:37 78° WNW 07:09:30 10° NNE
Okean 2 3.8 07:01:42 10° SSW 07:05:37 41° W 07:09:35 10° N
Cosmos 1346 3.3 07:03:12 10° S 07:06:00 66° E 07:08:49 10° NNE
Meteor 2-4 Rocket 4.4 07:01:47 10° SW 07:06:43 31° WNW 07:11:32 10° NNW
Cosmos 1666 3.6 07:03:35 10° NNW 07:06:54 27° W 07:10:13 10° SSW
Cosmos 332 Rocket 4.0 07:03:37 10° SSW 07:08:22 51° WNW 07:13:09 10° N
Cosmos 1959 Rocket 4.4 07:02:27 10° N 07:08:33 76° W 07:14:41 10° S
Gblst 52 Del rocket 4.5 07:04:18 10° NW 07:10:13 69° SW 07:16:58 10° SSE
Meteor 1-15 Rocket 4.3 07:06:21 10° NNW 07:12:15 71° W 07:18:07 10° S
ATLAS 5 CENTAUR R/B 2.8 07:08:17 10° NNW 07:14:30 75° ENE 07:21:08 10° SE
USA 215 3.4 07:10:04 10° SSE 07:16:29 57° SW 07:22:55 10° NW
SKYMED 2 3.7 07:14:11 10° SSE 07:18:30 80° ENE 07:22:50 10° N
Cosmos 2366 rocket 4.0 07:15:49 10° NNW 07:22:07 67° W 07:28:23 10° S
Cosmos 2333 Rocket 3.5 07:18:05 10° WSW 07:22:20 21° WNW 07:26:38 10° NNW
GOES 2 Rocket 3.9 07:18:00 10° W 07:22:56 60° S 07:29:26 10° ESE
Meteor 1-31 Rocket 4.3 07:21:06 10° NNW 07:23:41 18° WNW 07:26:17 10° WSW
Cosmos 2058 Rocket 3.1 07:20:08 10° N 07:24:36 83° W 07:29:01 10° S
EXPRESS MD2 4.4 07:20:17 10° WSW 07:24:50 28° NW 07:27:33 10° NNE
CZ-4 R/B 4.3 07:21:59 10° NE 07:24:59 21° E 07:27:57 10° SSE
Cosmos 1867 3.6 07:23:12 10° NNW 07:28:38 70° WSW 07:33:59 10° SSE
